Weather History for Litchfield, MN

Change the Weather History Date:

Thursday, June 14, 2012

  Actual Average Record
Temperature  
Mean Temperature 71 °F -  
Max Temperature 82 °F 80 °F 99 °F (1979)
Min Temperature 60 °F 57 °F 39 °F (1958)
Cooling Degree Days 6    
Growing Degree Days 21 (Base 50)    
Moisture  
Dew Point 61 °F    
Average Humidity 79    
Maximum Humidity 100    
Minimum Humidity 56    
Precipitation  
Precipitation 0.34 in - - ()
Sea Level Pressure  
Sea Level Pressure 29.78 in    
Wind  
Wind Speed 11 mph (SE)    
Max Wind Speed 30 mph    
Max Gust Speed 37 mph    
Visibility 10 miles    
Events Rain , Thunderstorm    
Averages and records for this station are not official NWS values.
T = Trace of Precipitation, MM = Missing Value Source: NWS Daily Summary

Daily Weather History Graph

Daily Weather History Graph

Search for Another Location

Airport:

Trip Planner

Search our weather history database for the weather conditions in past years. The results will help you decide how hot, cold, wet, or windy it might be!

Date:

Astronomy

Jun. 14, 2012 Rise Set
Actual Time 5:30 AM CDT 9:06 PM CDT
Civil Twilight 4:52 AM CDT 9:44 PM CDT
Nautical Twilight 4:03 AM CDT 10:34 PM CDT
Astronomical Twilight 2:57 AM CDT 11:40 PM CDT
Moon 2:22 AM CDT (6/14) 4:43 PM CDT (6/14)
Length of Visible Light 16h 51m
Length of Day
15h 36m
Waning Crescent, 21% of the Moon is Illuminated
Jun 14
Waning Crescent
Jun 19
New
Jun 26
First Quarter
Jul 3
Full
Jul 10
Last Quarter

Hourly Weather History & Observations

Time (CDT) Temp. Heat Index Dew Point Humidity Pressure Visibility Wind Dir Wind Speed Gust Speed Precip Events Conditions
12:12 AM 64.4 °F - 50.0 °F 59% 29.86 in 10.0 mi SE 11.5 mph 18.4 mph N/A   Scattered Clouds
12:33 AM 64.4 °F - 50.0 °F 59% 29.86 in 10.0 mi SE 12.7 mph 17.3 mph N/A   Scattered Clouds
12:53 AM 64.4 °F - 48.2 °F 56% 29.86 in 10.0 mi SE 10.4 mph - N/A   Clear
1:13 AM 64.4 °F - 48.2 °F 56% 29.86 in 10.0 mi SE 10.4 mph 17.3 mph N/A   Scattered Clouds
1:33 AM 66.2 °F - 50.0 °F 56% 29.86 in 10.0 mi SE 11.5 mph 18.4 mph N/A   Scattered Clouds
1:52 AM 66.2 °F - 50.0 °F 56% 29.85 in 10.0 mi SE 10.4 mph 18.4 mph N/A   Clear
2:13 AM 64.4 °F - 50.0 °F 59% 29.84 in 10.0 mi SE 11.5 mph 17.3 mph N/A   Clear
2:33 AM 64.4 °F - 50.0 °F 59% 29.82 in 10.0 mi SE 11.5 mph 19.6 mph N/A   Scattered Clouds
2:52 AM 66.2 °F - 50.0 °F 56% 29.81 in 10.0 mi SE 11.5 mph 18.4 mph N/A   Mostly Cloudy
3:13 AM 66.2 °F - 50.0 °F 56% 29.80 in 10.0 mi SSE 13.8 mph 20.7 mph N/A   Mostly Cloudy
3:33 AM 66.2 °F - 50.0 °F 56% 29.79 in 10.0 mi SE 12.7 mph 16.1 mph N/A   Scattered Clouds
3:52 AM 66.2 °F - 50.0 °F 56% 29.78 in 10.0 mi SE 13.8 mph 26.5 mph N/A   Scattered Clouds
4:13 AM 66.2 °F - 50.0 °F 56% 29.79 in 10.0 mi SSE 12.7 mph 19.6 mph N/A   Clear
4:33 AM 66.2 °F - 51.8 °F 60% 29.78 in 10.0 mi SSE 12.7 mph 19.6 mph N/A   Clear
4:52 AM 66.2 °F - 51.8 °F 60% 29.77 in 10.0 mi SSE 10.4 mph 19.6 mph N/A   Clear
5:13 AM 66.2 °F - 51.8 °F 60% 29.76 in 10.0 mi SSE 12.7 mph 18.4 mph N/A   Clear
5:33 AM 66.2 °F - 51.8 °F 60% 29.75 in 10.0 mi SSE 12.7 mph 19.6 mph N/A   Scattered Clouds
5:52 AM 66.2 °F - 51.8 °F 60% 29.72 in 10.0 mi SSE 13.8 mph 23.0 mph N/A   Scattered Clouds
6:13 AM 66.2 °F - 53.6 °F 64% 29.71 in 10.0 mi SSE 15.0 mph 32.2 mph N/A Thunderstorm Clear
6:32 AM 66.2 °F - 53.6 °F 64% 29.71 in 10.0 mi SSE 12.7 mph 23.0 mph N/A   Clear
6:53 AM 66.2 °F - 53.6 °F 64% 29.70 in 10.0 mi SSE 12.7 mph 26.5 mph N/A   Clear
7:13 AM 66.2 °F - 53.6 °F 64% 29.74 in 10.0 mi WSW 4.6 mph 17.3 mph N/A   Scattered Clouds
7:33 AM 64.4 °F - 53.6 °F 68% 29.79 in 10.0 mi NNE 29.9 mph 36.8 mph N/A Thunderstorm Thunderstorm
7:53 AM 64.4 °F - 55.4 °F 73% 29.82 in 10.0 mi NNE 9.2 mph 25.3 mph N/A Rain , Thunderstorm Light Thunderstorms and Rain
8:13 AM 62.6 °F - 60.8 °F 94% 29.78 in 2.5 mi East 11.5 mph 17.3 mph 0.27 in Rain , Thunderstorm Heavy Thunderstorms and Rain
8:32 AM 62.6 °F - 60.8 °F 94% 29.82 in 7.0 mi ENE 6.9 mph 11.5 mph 0.34 in Rain , Thunderstorm Light Thunderstorms and Rain
8:53 AM 60.8 °F - 60.8 °F 100% 29.77 in 10.0 mi ESE 15.0 mph - N/A Thunderstorm Unknown
9:13 AM 60.8 °F - 60.8 °F 100% 29.80 in 10.0 mi ESE 11.5 mph - N/A Rain , Thunderstorm Rain
9:33 AM 62.6 °F - 60.8 °F 94% 29.78 in 10.0 mi ESE 13.8 mph - N/A Rain Light Rain
9:53 AM 60.8 °F - 60.8 °F 100% 29.78 in 10.0 mi ESE 16.1 mph - N/A   Overcast
10:12 AM 60.8 °F - 60.8 °F 100% 29.79 in 7.0 mi ESE 12.7 mph - N/A Thunderstorm Overcast
10:53 AM 62.6 °F - 62.6 °F 100% 29.79 in 10.0 mi ESE 11.5 mph - N/A   Overcast
11:13 AM 62.6 °F - 62.6 °F 100% 29.78 in 10.0 mi ESE 15.0 mph - N/A   Overcast
11:32 AM 64.4 °F - 62.6 °F 94% 29.77 in 10.0 mi SE 18.4 mph 21.9 mph N/A   Overcast
11:53 AM 64.4 °F - 62.6 °F 94% 29.76 in 10.0 mi SE 13.8 mph - N/A   Overcast
12:13 PM 66.2 °F - 64.4 °F 94% 29.76 in 10.0 mi SE 15.0 mph 19.6 mph N/A Thunderstorm Mostly Cloudy
12:32 PM 66.2 °F - 64.4 °F 94% 29.76 in 10.0 mi SE 13.8 mph 20.7 mph N/A Thunderstorm Overcast
12:53 PM 66.2 °F - 64.4 °F 94% 29.76 in 10.0 mi SE 12.7 mph 18.4 mph N/A   Overcast
1:12 PM 68.0 °F - 64.4 °F 88% 29.75 in 10.0 mi SE 12.7 mph 18.4 mph N/A Thunderstorm Overcast
1:26 PM 69.8 °F - 64.4 °F 83% 29.75 in 10.0 mi SSE 16.1 mph 25.3 mph N/A Thunderstorm Overcast
1:53 PM - - - N/A% 29.75 in 10.0 mi SSE 12.7 mph 24.2 mph N/A   Overcast
2:12 PM 71.6 °F - 66.2 °F 83% 29.75 in 10.0 mi SE 11.5 mph 19.6 mph N/A   Overcast
2:33 PM 71.6 °F - 66.2 °F 83% 29.75 in 10.0 mi SSE 10.4 mph 16.1 mph N/A   Mostly Cloudy
2:53 PM 71.6 °F - 64.4 °F 78% 29.76 in 10.0 mi SE 13.8 mph 20.7 mph N/A   Mostly Cloudy
3:12 PM 69.8 °F - 64.4 °F 83% 29.75 in 10.0 mi SE 9.2 mph 17.3 mph N/A Thunderstorm Scattered Clouds
3:33 PM 69.8 °F - 66.2 °F 88% 29.75 in 10.0 mi SSE 9.2 mph 16.1 mph N/A Thunderstorm Scattered Clouds
3:53 PM 69.8 °F - 66.2 °F 88% 29.76 in 10.0 mi SSE 6.9 mph - N/A   Scattered Clouds
4:13 PM 71.6 °F - 66.2 °F 83% 29.75 in 10.0 mi SE 8.1 mph - N/A Thunderstorm Scattered Clouds
4:33 PM 75.2 °F - 69.8 °F 83% 29.74 in 10.0 mi SSE 6.9 mph - N/A   Clear
4:53 PM 75.2 °F - 69.8 °F 83% 29.73 in 10.0 mi SSE 3.5 mph - N/A   Clear
5:12 PM 78.8 °F - 69.8 °F 74% 29.73 in 10.0 mi Calm Calm - N/A Thunderstorm Clear
5:33 PM 80.6 °F 84.6 °F 71.6 °F 74% 29.73 in 10.0 mi SSE 4.6 mph - N/A   Clear
5:52 PM 80.6 °F 85.4 °F 73.4 °F 79% 29.73 in 10.0 mi Calm Calm - N/A   Clear
6:13 PM 82.4 °F 87.2 °F 71.6 °F 70% 29.74 in 10.0 mi Calm Calm - N/A   Clear
6:32 PM 80.6 °F 85.4 °F 73.4 °F 79% 29.75 in 10.0 mi East 5.8 mph - N/A   Clear
6:53 PM 80.6 °F 84.6 °F 71.6 °F 74% 29.75 in 10.0 mi North 3.5 mph - N/A   Clear
7:12 PM 80.6 °F 84.6 °F 71.6 °F 74% 29.75 in 10.0 mi NNW 5.8 mph - N/A   Clear
7:32 PM 80.6 °F 83.9 °F 69.8 °F 70% 29.74 in 10.0 mi NW 9.2 mph - N/A   Clear
7:53 PM 78.8 °F - 69.8 °F 74% 29.74 in 10.0 mi NW 8.1 mph - N/A   Clear
8:13 PM 78.8 °F - 69.8 °F 74% 29.77 in 10.0 mi NNW 8.1 mph - N/A   Clear
8:33 PM 77.0 °F - 71.6 °F 83% 29.79 in 10.0 mi NE 3.5 mph - N/A   Clear
8:53 PM 75.2 °F - 71.6 °F 89% 29.79 in 10.0 mi North 3.5 mph - N/A   Clear
9:13 PM 73.4 °F - 71.6 °F 94% 29.80 in 10.0 mi NNE 4.6 mph - N/A   Clear
9:33 PM 71.6 °F - 69.8 °F 94% 29.82 in 10.0 mi East 3.5 mph - N/A   Clear
9:53 PM 69.8 °F - 69.8 °F 100% 29.84 in 10.0 mi Calm Calm - N/A   Clear
10:13 PM 68.0 °F - 68.0 °F 100% 29.85 in 7.0 mi Calm Calm - N/A   Clear
10:33 PM 66.2 °F - 66.2 °F 100% 29.86 in 10.0 mi ESE 9.2 mph - N/A   Scattered Clouds
10:53 PM 66.2 °F - 66.2 °F 100% 29.87 in 7.0 mi ESE 4.6 mph - N/A   Scattered Clouds
11:12 PM 66.2 °F - 66.2 °F 100% 29.88 in 7.0 mi SE 4.6 mph - N/A   Mostly Cloudy
11:33 PM 66.2 °F - 66.2 °F 100% 29.88 in 7.0 mi ESE 3.5 mph - N/A   Scattered Clouds
11:51 PM 66.2 °F - 66.2 °F 100% 29.90 in 7.0 mi East 3.5 mph - N/A   Mostly Cloudy